Zurück zum Katalog

ICEYE-X6

AktivWissenschaftPO
NORAD 46497·PAYLOAD·🇫🇮 Finland

Gestartet Sep 28, 2020 von Plesetsk Cosmodrome

Loading…

Nächste Überflüge (nächste 24 Stunden)

TLE

AktuellSource: Space-Track

Epoche: Sep 14, 2026, 23:07 UTC

1 46497U 20068M   26257.96378419  .00001456  00000-0  10760-3 0  9998
2 46497  98.1040 255.9857 0007894 139.6900 220.4912 15.04909783326738

Verfolge ICEYE-X6 in Echtzeit mit AllMySat

Download on the App Store